Regional Weather Roundup
Issued by NWS Cleveland, OH

Home | Current Version | Previous Version | Graphics & Text | Print | Product List | Glossary On
Versions: 1 2 3 4 5 6 7 8 9 10 11 12 13 14 15 16 17 18 19 20 21 22 23 24 25 26 27 28 29 30 31 32 33 34 35 36 37 38 39 40 41 42 43 44 45 46 47 48 49 50
000
ASUS41 KCLE 012200
RWRCLE
OHIO REGIONAL WEATHER ROUNDUP
NATIONAL WEATHER SERVICE WILMINGTON, OH
500 PM EST SUN FEB 01 2015

NOTE: "FAIR" INDICATES FEW OR NO CLOUDS BELOW 12,000 FEET WITH NO
SIGNIFICANT WEATHER AND/OR OBSTRUCTIONS TO VISIBILITY.

OHZ001>008-015>018-024>027-034-035-043-044-012300-
   NORTHWEST OHIO

CITY           SKY/WX    TMP DP  RH WIND       PRES   REMARKS
DEFIANCE       SNOW      27  24  89 NE14G22   29.71F VSB 1/2 WCI  16
FINDLAY        LGT SNOW  34  32  92 E12       29.67F VSB 3/4 WCI  25
TOLEDO EXPRESS SNOW      26  23  88 NE22G33   29.74F VSB 1/4 WCI  12
TOLEDO EXEC    SNOW      27  24  89 NE18G28   29.76F VSB 1/4 WCI  14
LIMA           LGT RAIN  34  32  92 E12       29.63F VSB 1   WCI  25
$$

OHZ009>014-019>023-028>033-038-089-012300-
   NORTHEAST OHIO

CITY           SKY/WX    TMP DP  RH WIND       PRES   REMARKS
CLE-HOPKINS    LGT SNOW  32  29  88 E13       29.81F WCI  22
CLE-LAKEFRONT  LGT SNOW  32  29  88 E8        29.80F FOG     WCI  25
CUY CO. ARPT   LGT SNOW  32  30  93 E15       29.82F WCI  22
LORAIN-ELYRIA  SNOW      32  31  96 E12       29.76F VSB 1/2 WCI  23
ASHTABULA      LGT SNOW  28  25  88 E7        29.87F FOG     WCI  21
AKRON-CANTON   LGT SNOW  34  30  85 SE7       29.78F FOG     WCI  28
WOOSTER        NOT AVBL
MANSFIELD      LGT SNOW  33  32  96 SE17      29.68F FOG     WCI  22
YOUNGSTOWN     LGT SNOW  30  28  92 E12       29.82F FOG     WCI  20
$$

OHZ042-051>053-060>062-070>072-077>081-012300-
  SOUTHWEST OHIO

CITY           SKY/WX    TMP DP  RH WIND       PRES   REMARKS
CINC-COVINGTON LGT RAIN  43  40  89 S16       29.62F FOG
CINC-LUNKEN    LGT RAIN  41  40  96 S8        29.65F FOG
HAMILTON       LGT RAIN  42  41  96 VRB3      29.63F FOG
DAYTON         NOT AVBL
WRIGHT-PAT AFB NOT AVBL
DAYTON GENERAL CLOUDY    41  39  93 S13       29.61F FOG
WILMINGTON     CLOUDY    38  36  92 S13       29.64F FOG
$$

OHZ036-037-039>041-045>050-054>059-063>069-073>076-082>088-012300-
  CENTRAL AND SOUTHEAST OHIO

CITY           SKY/WX    TMP DP  RH WIND       PRES   REMARKS
COLUMBUS       LGT RAIN  36  31  82 SE14      29.70F
OSU AIRPORT    CLOUDY    36  32  85 SE13G21   29.68F
BOLTON FIELD   CLOUDY    36  34  93 SE9       29.68F FOG
RICKENBACK AFB NOT AVBL
NEWARK         CLOUDY    36  32  85 SE9       29.72F
MARION         MIX PCPN  35  32  88 S15       29.68F FOG     WCI  25
LANCASTER      CLOUDY    36  33  89 SE13      29.71F
ZANESVILLE     MIX PCPN  35  31  85 S14       29.76F WCI  26
NEW PHILLY     LGT RAIN  35  32  88 SE6       29.79F FOG
$$



USA.gov is the U.S. government's official web portal to all federal, state and local government web resources and services.